User: anonymous   Login
Location: El Portezuelo
(28.4984°N, 16.3589°W)
Time: 12:01:09
(UTC+00:00)
Language:

SMAP - Orbit

View from above orbital plane
View from above orbital plane
View from above satellite
View from above satellite

Ground track
Ground track

The orbit data is extracted from the following two-line orbital elements,

1 40376U 15003A   20099.23402297  .00000050  00000-0  18722-4 0  9997
2 40376  98.1249 106.7968 0001240 114.6137 245.5194 14.63378498276954
Epoch (UTC): 08 April 2020 05:36:59
Eccentricity: 0.0001240
inclination: 98.1249°
perigee height: 681 km
apogee height: 683 km
right ascension of ascending node: 106.7968°
argument of perigee: 114.6137°
revolutions per day: 14.63378498
mean anomaly at epoch: 245.5194°
orbit number at epoch: 27695

The dashed part of the orbit path shows where the satellite is in the earth's shadow,  

DLR